SWR9EB LEPA-LSZH

Flight info

Callsign SWR9EB
Flight time N/A
Altitude 36000
Route MEROS DCT LAPIT DCT CHELY DCT LUMAS DCT MAXIR DCT LUSOL DCT BODRU DCT OKTET DCT IRMAR DCT KINES DCT VANAS DCT MOBLO DCT LAMUR DCT KORED N871 BERSU
Aircraft A320/M-SDE3FGHIRWY/LB1

Departure

Time 2026-05-07 09:54
Airport Palma de Mallorca Airport (LEPA)

Arrival

Time N/A
Airport Zürich Airport (LSZH)
Time Latitude Longitude Altitude Speed Heading
2026-05-07 09:28 39.54851 2.73838 39 ft 0 kts 268°
2026-05-07 09:46 39.54852 2.73848 38 ft 4 kts 265°
2026-05-07 09:47 39.54855 2.73882 38 ft 4 kts 253°
2026-05-07 09:47 39.54865 2.73914 36 ft 4 kts 237°
2026-05-07 09:47 39.54882 2.73940 35 ft 4 kts 214°
2026-05-07 09:47 39.54905 2.73952 38 ft 4 kts 171°
2026-05-07 09:48 39.54915 2.73949 35 ft 0 kts 149°
2026-05-07 09:50 39.54909 2.73953 35 ft 5 kts 149°
2026-05-07 09:50 39.54833 2.73993 38 ft 14 kts 179°
2026-05-07 09:50 39.54761 2.73949 38 ft 11 kts 174°
2026-05-07 09:50 39.54697 2.73931 37 ft 10 kts 227°
2026-05-07 09:51 39.54662 2.73858 38 ft 9 kts 238°
2026-05-07 09:51 39.54611 2.73749 38 ft 22 kts 238°
2026-05-07 09:51 39.54533 2.73587 38 ft 20 kts 239°
2026-05-07 09:51 39.54462 2.73438 38 ft 19 kts 237°
2026-05-07 09:52 39.54397 2.73301 38 ft 17 kts 237°
2026-05-07 09:52 39.54339 2.73179 38 ft 15 kts 226°
2026-05-07 09:52 39.54273 2.73221 38 ft 13 kts 104°
2026-05-07 09:52 39.54268 2.73357 38 ft 20 kts 91°
2026-05-07 09:53 39.54321 2.73580 38 ft 34 kts 59°
2026-05-07 09:53 39.54566 2.74098 38 ft 99 kts 58°
2026-05-07 09:53 39.55017 2.75053 42 ft 148 kts 59°
2026-05-07 09:53 39.55592 2.76288 309 ft 173 kts 59°
2026-05-07 09:54 39.56233 2.77614 950 ft 177 kts 58°
2026-05-07 09:54 39.56907 2.78968 1562 ft 187 kts 60°
2026-05-07 09:54 39.57603 2.80504 2055 ft 203 kts 61°
2026-05-07 09:54 39.58307 2.82100 2899 ft 204 kts 63°
2026-05-07 09:55 39.59014 2.83701 3696 ft 206 kts 62°
2026-05-07 09:55 39.59736 2.85327 4454 ft 210 kts 62°
2026-05-07 09:55 39.60477 2.86983 5151 ft 215 kts 62°
2026-05-07 09:55 39.61257 2.88656 5856 ft 222 kts 57°
2026-05-07 09:56 39.62225 2.90352 6259 ft 245 kts 53°
2026-05-07 09:56 39.63330 2.92166 6721 ft 264 kts 52°
2026-05-07 09:56 39.64503 2.94053 7432 ft 272 kts 53°
2026-05-07 09:56 39.65703 2.95980 8206 ft 277 kts 52°
2026-05-07 09:57 39.66927 2.97948 8969 ft 283 kts 52°
2026-05-07 09:57 39.68172 2.99964 9682 ft 290 kts 53°
2026-05-07 09:57 39.69445 3.02038 10150 ft 299 kts 53°
2026-05-07 09:57 39.70788 3.04237 10385 ft 322 kts 53°
2026-05-07 09:58 39.72219 3.06583 10795 ft 338 kts 53°
2026-05-07 09:58 39.73692 3.08998 11435 ft 345 kts 52°
2026-05-07 09:58 39.75197 3.11464 12119 ft 350 kts 53°
2026-05-07 09:58 39.76724 3.13967 12786 ft 356 kts 52°
2026-05-07 09:59 39.78271 3.16502 13484 ft 360 kts 52°
2026-05-07 09:59 39.79838 3.19072 14104 ft 365 kts 52°
2026-05-07 09:59 39.81422 3.21674 14708 ft 369 kts 51°
2026-05-07 09:59 39.83015 3.24301 15288 ft 373 kts 51°
2026-05-07 10:00 39.84612 3.26934 15864 ft 377 kts 51°
2026-05-07 10:00 39.86266 3.29663 16451 ft 381 kts 51°
2026-05-07 10:00 39.87894 3.32355 17011 ft 386 kts 51°
2026-05-07 10:00 39.89561 3.35115 17582 ft 390 kts 51°
2026-05-07 10:01 39.91248 3.37907 18153 ft 394 kts 51°
2026-05-07 10:01 39.92954 3.40729 18653 ft 398 kts 51°
2026-05-07 10:01 39.94679 3.43583 19114 ft 403 kts 51°
2026-05-07 10:01 39.96425 3.46474 19563 ft 408 kts 51°
2026-05-07 10:02 39.98192 3.49401 20017 ft 413 kts 51°